SENIL ESGT-ESSB

Flight info

Callsign SENIL
Flight time 1h 7m
Altitude 10000
Route DETSO N873 PELIT Y42 TINKA
Aircraft C208/L-SDFGR/S

Departure

Time 2026-05-04 18:21
Airport Trollhättan-Vänersborg Airport (ESGT)

Arrival

Time 2026-05-04 19:29
Airport Stockholm-Bromma Airport (ESSB)
Time Latitude Longitude Altitude Speed Heading
2026-05-04 18:10 58.31696 12.34885 143 ft 0 kts 96°
2026-05-04 18:17 58.31695 12.34892 143 ft 3 kts 128°
2026-05-04 18:17 58.31696 12.34813 143 ft 13 kts 302°
2026-05-04 18:17 58.31792 12.34464 139 ft 25 kts 326°
2026-05-04 18:18 58.31960 12.34255 139 ft 33 kts 324°
2026-05-04 18:18 58.32150 12.34009 145 ft 31 kts 326°
2026-05-04 18:18 58.32324 12.33786 143 ft 26 kts 326°
2026-05-04 18:18 58.32405 12.33669 141 ft 9 kts 66°
2026-05-04 18:19 58.32397 12.33695 141 ft 0 kts 147°
2026-05-04 18:20 58.32325 12.33787 143 ft 41 kts 146°
2026-05-04 18:20 58.31949 12.34300 201 ft 82 kts 157°
2026-05-04 18:21 58.31429 12.34977 430 ft 98 kts 151°
2026-05-04 18:21 58.30852 12.35905 683 ft 118 kts 147°
2026-05-04 18:21 58.30214 12.36981 1043 ft 128 kts 145°
2026-05-04 18:21 58.29531 12.38156 1408 ft 136 kts 147°
2026-05-04 18:22 58.28808 12.39362 1810 ft 139 kts 149°
2026-05-04 18:22 58.28071 12.40577 2212 ft 143 kts 147°
2026-05-04 18:22 58.27371 12.42000 2556 ft 152 kts 134°
2026-05-04 18:22 58.26951 12.43807 3047 ft 149 kts 100°
2026-05-04 18:23 58.27056 12.45761 3402 ft 152 kts 71°
2026-05-04 18:23 58.27330 12.47691 3839 ft 148 kts 71°
2026-05-04 18:23 58.27675 12.49527 4259 ft 148 kts 64°
2026-05-04 18:23 58.28072 12.51361 4633 ft 152 kts 63°
2026-05-04 18:24 58.28461 12.53264 4983 ft 157 kts 65°
2026-05-04 18:24 58.28834 12.55180 5319 ft 159 kts 66°
2026-05-04 18:24 58.29211 12.57172 5677 ft 161 kts 66°
2026-05-04 18:24 58.29586 12.59157 6032 ft 162 kts 65°
2026-05-04 18:25 58.29970 12.61177 6386 ft 163 kts 64°
2026-05-04 18:25 58.30360 12.63191 6751 ft 161 kts 64°
2026-05-04 18:25 58.30744 12.65185 7131 ft 160 kts 64°
2026-05-04 18:25 58.31122 12.67172 7509 ft 159 kts 64°
2026-05-04 18:26 58.31490 12.69131 7894 ft 158 kts 63°
2026-05-04 18:26 58.31862 12.71092 8284 ft 157 kts 63°
2026-05-04 18:26 58.32234 12.73054 8633 ft 160 kts 63°
2026-05-04 18:26 58.32618 12.75081 8950 ft 166 kts 63°
2026-05-04 18:27 58.33079 12.77093 9234 ft 168 kts 52°
2026-05-04 18:27 58.33662 12.79147 9362 ft 184 kts 55°
2026-05-04 18:27 58.34247 12.81381 9498 ft 193 kts 57°
2026-05-04 18:27 58.34847 12.83701 9637 ft 198 kts 57°
2026-05-04 18:28 58.35470 12.86065 9759 ft 202 kts 56°
2026-05-04 18:28 58.36107 12.88465 9855 ft 204 kts 56°
2026-05-04 18:28 58.36756 12.90900 9921 ft 209 kts 56°
2026-05-04 18:28 58.37421 12.93388 9956 ft 213 kts 57°
2026-05-04 18:29 58.38095 12.95927 9976 ft 216 kts 57°
2026-05-04 18:29 58.38779 12.98501 9878 ft 222 kts 57°
2026-05-04 18:29 58.39471 13.01163 9797 ft 223 kts 58°
2026-05-04 18:29 58.40160 13.03799 9785 ft 221 kts 57°
2026-05-04 18:30 58.41539 13.08919 9897 ft 209 kts 56°
2026-05-04 18:30 58.42195 13.11371 9939 ft 206 kts 56°
2026-05-04 18:30 58.42842 13.13807 9963 ft 205 kts 56°
2026-05-04 18:31 58.43484 13.16237 9969 ft 205 kts 56°
2026-05-04 18:31 58.44126 13.18666 9974 ft 205 kts 56°
2026-05-04 18:31 58.44766 13.21096 9979 ft 205 kts 56°
2026-05-04 18:31 58.45408 13.23529 9981 ft 205 kts 56°
2026-05-04 18:32 58.45831 13.25139 9983 ft 205 kts 57°
2026-05-04 18:32 58.46469 13.27573 9970 ft 205 kts 56°
2026-05-04 18:32 58.47104 13.30007 9970 ft 205 kts 56°
2026-05-04 18:32 58.47740 13.32446 9986 ft 205 kts 57°
2026-05-04 18:33 58.48383 13.34901 9896 ft 209 kts 57°
2026-05-04 18:33 58.49027 13.37373 9959 ft 204 kts 57°
2026-05-04 18:33 58.49654 13.39802 9998 ft 203 kts 58°
2026-05-04 18:33 58.50250 13.42284 9984 ft 205 kts 58°
2026-05-04 18:34 58.50876 13.44729 9993 ft 205 kts 57°
2026-05-04 18:34 58.51519 13.47151 9982 ft 206 kts 56°
2026-05-04 18:34 58.52174 13.49593 9939 ft 208 kts 56°
2026-05-04 18:34 58.52803 13.52038 10063 ft 200 kts 58°
2026-05-04 18:35 58.53405 13.54493 9988 ft 206 kts 57°
2026-05-04 18:35 58.54051 13.56957 9947 ft 208 kts 56°
2026-05-04 18:35 58.54698 13.59394 10012 ft 203 kts 56°
2026-05-04 18:35 58.55346 13.61824 9930 ft 209 kts 56°
2026-05-04 18:36 58.56017 13.64347 9794 ft 214 kts 57°
2026-05-04 18:36 58.56677 13.66877 9790 ft 210 kts 57°
2026-05-04 18:36 58.57322 13.69365 9793 ft 208 kts 57°
2026-05-04 18:36 58.57959 13.71836 9793 ft 206 kts 57°
2026-05-04 18:37 58.58591 13.74291 9811 ft 205 kts 57°
2026-05-04 18:37 58.59221 13.76746 9803 ft 205 kts 57°
2026-05-04 18:37 58.59849 13.79197 9803 ft 205 kts 57°
2026-05-04 18:37 58.60478 13.81651 9800 ft 205 kts 57°
2026-05-04 18:38 58.61105 13.84099 9799 ft 205 kts 57°
2026-05-04 18:38 58.61732 13.86551 9798 ft 204 kts 57°
2026-05-04 18:38 58.62358 13.89001 9799 ft 204 kts 57°
2026-05-04 18:38 58.62982 13.91453 9789 ft 204 kts 57°
2026-05-04 18:39 58.63605 13.93898 9783 ft 204 kts 57°
2026-05-04 18:39 58.64227 13.96340 9786 ft 204 kts 57°
2026-05-04 18:39 58.64848 13.98782 9788 ft 204 kts 57°
2026-05-04 18:39 58.65469 14.01227 9788 ft 204 kts 57°
2026-05-04 18:40 58.66089 14.03674 9790 ft 204 kts 57°
2026-05-04 18:40 58.66709 14.06120 9787 ft 204 kts 57°
2026-05-04 18:40 58.67329 14.08568 9785 ft 204 kts 57°
2026-05-04 18:40 58.67949 14.11019 9784 ft 204 kts 57°
2026-05-04 18:41 58.68568 14.13470 9782 ft 204 kts 57°
2026-05-04 18:41 58.69187 14.15919 9783 ft 204 kts 57°
2026-05-04 18:41 58.69807 14.18377 9784 ft 204 kts 58°
2026-05-04 18:41 58.70418 14.20804 9778 ft 204 kts 58°
2026-05-04 18:42 58.71045 14.23295 9779 ft 204 kts 58°
2026-05-04 18:42 58.71654 14.25725 9778 ft 204 kts 57°
2026-05-04 18:42 58.72270 14.28183 9777 ft 204 kts 58°
2026-05-04 18:42 58.72886 14.30643 9779 ft 204 kts 58°
2026-05-04 18:43 58.73501 14.33104 9781 ft 204 kts 57°
2026-05-04 18:43 58.74118 14.35570 9781 ft 205 kts 58°
2026-05-04 18:43 58.74735 14.38042 9779 ft 205 kts 58°
2026-05-04 18:43 58.75350 14.40508 9778 ft 204 kts 58°
2026-05-04 18:44 58.75962 14.42973 9776 ft 204 kts 58°
2026-05-04 18:44 58.76376 14.44637 9775 ft 204 kts 58°
2026-05-04 18:44 58.77185 14.47889 9776 ft 203 kts 58°
2026-05-04 18:44 58.77795 14.50346 9778 ft 203 kts 57°
2026-05-04 18:45 58.78408 14.52807 9797 ft 204 kts 58°
2026-05-04 18:45 58.79019 14.55269 9787 ft 204 kts 59°
2026-05-04 18:45 58.79629 14.57738 9778 ft 203 kts 59°
2026-05-04 18:45 58.80238 14.60195 9775 ft 203 kts 59°
2026-05-04 18:46 58.80845 14.62650 9776 ft 202 kts 59°
2026-05-04 18:46 58.81448 14.65095 9774 ft 202 kts 59°
2026-05-04 18:46 58.82052 14.67546 9773 ft 202 kts 59°
2026-05-04 18:46 58.82656 14.69996 9770 ft 202 kts 59°
2026-05-04 18:47 58.83260 14.72453 9768 ft 203 kts 59°
2026-05-04 18:47 58.83869 14.74911 9769 ft 203 kts 59°
2026-05-04 18:47 58.84477 14.77374 9770 ft 203 kts 59°
2026-05-04 18:47 58.85083 14.79839 9770 ft 203 kts 59°
2026-05-04 18:48 58.85684 14.82310 9775 ft 203 kts 59°
2026-05-04 18:48 58.86287 14.84787 9766 ft 204 kts 60°
2026-05-04 18:48 58.86892 14.87266 9762 ft 204 kts 59°
2026-05-04 18:48 58.87494 14.89749 9762 ft 204 kts 59°
2026-05-04 18:49 58.88098 14.92228 9761 ft 204 kts 59°
2026-05-04 18:49 58.88700 14.94710 9761 ft 204 kts 60°
2026-05-04 18:49 58.89299 14.97195 9762 ft 204 kts 60°
2026-05-04 18:49 58.89890 14.99632 9761 ft 204 kts 60°
2026-05-04 18:50 58.90488 15.02118 9758 ft 204 kts 60°
2026-05-04 18:50 58.91090 15.04594 9759 ft 204 kts 60°
2026-05-04 18:50 58.91691 15.07075 9760 ft 204 kts 60°
2026-05-04 18:50 58.92294 15.09555 9760 ft 204 kts 59°
2026-05-04 18:51 58.92898 15.12043 9761 ft 204 kts 60°
2026-05-04 18:51 58.93498 15.14525 9760 ft 204 kts 60°
2026-05-04 18:51 58.94097 15.17008 9752 ft 203 kts 60°
2026-05-04 18:51 58.94693 15.19490 9754 ft 203 kts 60°
2026-05-04 18:52 58.95287 15.21972 9755 ft 203 kts 60°
2026-05-04 18:52 58.95885 15.24458 9756 ft 204 kts 60°
2026-05-04 18:52 58.96481 15.26949 9754 ft 204 kts 60°
2026-05-04 18:52 58.97076 15.29437 9751 ft 204 kts 60°
2026-05-04 18:53 58.97671 15.31926 9755 ft 203 kts 60°
2026-05-04 18:53 58.98266 15.34406 9772 ft 202 kts 61°
2026-05-04 18:53 58.98856 15.36874 9763 ft 201 kts 61°
2026-05-04 18:53 58.99444 15.39337 9760 ft 201 kts 61°
2026-05-04 18:54 59.00028 15.41794 9758 ft 200 kts 61°
2026-05-04 18:54 59.00612 15.44248 9758 ft 200 kts 62°
2026-05-04 18:54 59.01195 15.46702 9747 ft 200 kts 60°
2026-05-04 18:54 59.01777 15.49158 9746 ft 200 kts 60°
2026-05-04 18:55 59.02360 15.51616 9747 ft 201 kts 60°
2026-05-04 18:55 59.03526 15.56547 9747 ft 201 kts 60°
2026-05-04 18:55 59.04109 15.59016 9746 ft 201 kts 60°
2026-05-04 18:56 59.04692 15.61481 9747 ft 201 kts 60°
2026-05-04 18:56 59.05273 15.63947 9747 ft 201 kts 60°
2026-05-04 18:56 59.05852 15.66413 9748 ft 201 kts 60°
2026-05-04 18:56 59.06432 15.68878 9749 ft 201 kts 60°
2026-05-04 18:57 59.07013 15.71352 9749 ft 201 kts 60°
2026-05-04 18:57 59.07592 15.73826 9749 ft 201 kts 60°
2026-05-04 18:57 59.08173 15.76299 9748 ft 201 kts 60°
2026-05-04 18:57 59.08753 15.78774 9747 ft 201 kts 60°
2026-05-04 18:58 59.09331 15.81245 9739 ft 201 kts 61°
2026-05-04 18:58 59.09910 15.83724 9742 ft 201 kts 61°
2026-05-04 18:58 59.10489 15.86208 9741 ft 202 kts 61°
2026-05-04 18:58 59.11068 15.88691 9739 ft 201 kts 61°
2026-05-04 18:59 59.11645 15.91171 9739 ft 201 kts 61°
2026-05-04 18:59 59.12221 15.93650 9740 ft 201 kts 61°
2026-05-04 18:59 59.12797 15.96127 9740 ft 201 kts 61°
2026-05-04 18:59 59.13374 15.98613 9741 ft 201 kts 61°
2026-05-04 19:00 59.13949 16.01097 9740 ft 201 kts 61°
2026-05-04 19:00 59.14515 16.03553 9743 ft 201 kts 61°
2026-05-04 19:00 59.15092 16.06043 9745 ft 202 kts 61°
2026-05-04 19:00 59.15669 16.08539 9747 ft 202 kts 61°
2026-05-04 19:01 59.16246 16.11034 9746 ft 202 kts 61°
2026-05-04 19:01 59.16822 16.13532 9743 ft 202 kts 61°
2026-05-04 19:01 59.17396 16.16022 9748 ft 201 kts 63°
2026-05-04 19:01 59.17965 16.18498 9739 ft 199 kts 63°
2026-05-04 19:02 59.18527 16.20950 9737 ft 198 kts 63°
2026-05-04 19:02 59.19086 16.23388 9727 ft 196 kts 62°
2026-05-04 19:02 59.19641 16.25812 9730 ft 195 kts 62°
2026-05-04 19:02 59.20186 16.28220 9731 ft 194 kts 65°
2026-05-04 19:03 59.20515 16.30780 9731 ft 196 kts 83°
2026-05-04 19:03 59.20543 16.33436 9734 ft 196 kts 89°
2026-05-04 19:03 59.20554 16.36100 9685 ft 196 kts 89°
2026-05-04 19:03 59.20565 16.38719 9520 ft 190 kts 89°
2026-05-04 19:04 59.20577 16.41277 9357 ft 188 kts 89°
2026-05-04 19:04 59.20587 16.43825 9192 ft 187 kts 89°
2026-05-04 19:04 59.20597 16.46355 9032 ft 186 kts 89°
2026-05-04 19:04 59.20607 16.48889 8871 ft 188 kts 89°
2026-05-04 19:05 59.20617 16.51453 8711 ft 190 kts 89°
2026-05-04 19:05 59.20627 16.54039 8553 ft 191 kts 89°
2026-05-04 19:05 59.20636 16.56624 8395 ft 191 kts 89°
2026-05-04 19:05 59.20645 16.59231 8238 ft 192 kts 89°
2026-05-04 19:06 59.20653 16.61833 8081 ft 192 kts 89°
2026-05-04 19:06 59.20661 16.64438 7924 ft 192 kts 89°
2026-05-04 19:06 59.20668 16.67039 7768 ft 192 kts 89°
2026-05-04 19:06 59.20675 16.69654 7612 ft 192 kts 89°
2026-05-04 19:07 59.20680 16.72250 7456 ft 191 kts 89°
2026-05-04 19:07 59.20686 16.74839 7300 ft 190 kts 89°
2026-05-04 19:07 59.20691 16.77413 7166 ft 190 kts 89°
2026-05-04 19:07 59.20697 16.79993 7043 ft 191 kts 89°
2026-05-04 19:08 59.20702 16.82587 6919 ft 191 kts 89°
2026-05-04 19:08 59.20706 16.85169 6791 ft 191 kts 89°
2026-05-04 19:08 59.20710 16.87772 6662 ft 191 kts 89°
2026-05-04 19:08 59.20712 16.90367 6533 ft 191 kts 89°
2026-05-04 19:09 59.20714 16.92961 6411 ft 191 kts 88°
2026-05-04 19:09 59.20717 16.95548 6290 ft 191 kts 88°
2026-05-04 19:09 59.20719 16.98129 6166 ft 190 kts 88°
2026-05-04 19:09 59.20720 17.00709 6041 ft 190 kts 88°
2026-05-04 19:10 59.20705 17.03288 5911 ft 190 kts 91°
2026-05-04 19:10 59.20632 17.05867 5775 ft 190 kts 92°
2026-05-04 19:10 59.20546 17.08440 5643 ft 190 kts 92°
2026-05-04 19:10 59.20463 17.11013 5512 ft 190 kts 92°
2026-05-04 19:11 59.20384 17.13590 5385 ft 190 kts 92°
2026-05-04 19:11 59.20308 17.16165 5260 ft 190 kts 92°
2026-05-04 19:11 59.20233 17.18746 5137 ft 190 kts 91°
2026-05-04 19:11 59.20158 17.21320 5035 ft 188 kts 92°
2026-05-04 19:12 59.20084 17.23895 5017 ft 192 kts 92°
2026-05-04 19:12 59.19929 17.29137 5003 ft 194 kts 92°
2026-05-04 19:12 59.19851 17.31755 5003 ft 194 kts 92°
2026-05-04 19:13 59.19773 17.34378 5008 ft 194 kts 92°
2026-05-04 19:13 59.19693 17.37007 5006 ft 194 kts 92°
2026-05-04 19:13 59.19614 17.39632 5001 ft 194 kts 92°
2026-05-04 19:13 59.19534 17.42248 5001 ft 193 kts 92°
2026-05-04 19:14 59.19454 17.44865 5003 ft 193 kts 92°
2026-05-04 19:14 59.19372 17.47483 5007 ft 194 kts 92°
2026-05-04 19:14 59.19295 17.50111 5002 ft 194 kts 92°
2026-05-04 19:14 59.19217 17.52731 4998 ft 193 kts 92°
2026-05-04 19:15 59.19140 17.55336 4997 ft 192 kts 92°
2026-05-04 19:15 59.19062 17.57934 5002 ft 192 kts 92°
2026-05-04 19:15 59.18985 17.60532 5007 ft 192 kts 92°
2026-05-04 19:15 59.18905 17.63145 5008 ft 193 kts 93°
2026-05-04 19:16 59.18824 17.65767 5006 ft 194 kts 92°
2026-05-04 19:16 59.18770 17.67502 5005 ft 194 kts 92°
2026-05-04 19:16 59.18661 17.71004 5002 ft 193 kts 92°
2026-05-04 19:16 59.18578 17.73623 5006 ft 193 kts 92°
2026-05-04 19:17 59.18523 17.75354 5003 ft 193 kts 92°
2026-05-04 19:17 59.18442 17.77964 4996 ft 193 kts 92°
2026-05-04 19:17 59.18358 17.80576 4996 ft 193 kts 92°
2026-05-04 19:17 59.18246 17.84037 4994 ft 193 kts 92°
2026-05-04 19:18 59.18190 17.85803 4985 ft 194 kts 92°
2026-05-04 19:18 59.18076 17.89343 4777 ft 201 kts 93°
2026-05-04 19:18 59.18015 17.91190 4670 ft 203 kts 93°
2026-05-04 19:18 59.17927 17.93916 4539 ft 198 kts 92°
2026-05-04 19:19 59.17844 17.96516 4404 ft 188 kts 92°
2026-05-04 19:19 59.17765 17.99050 4279 ft 185 kts 92°
2026-05-04 19:19 59.17685 18.01547 4152 ft 184 kts 92°
2026-05-04 19:19 59.17604 18.04041 4026 ft 184 kts 92°
2026-05-04 19:20 59.17522 18.06530 3894 ft 184 kts 93°
2026-05-04 19:20 59.17440 18.09010 3757 ft 183 kts 93°
2026-05-04 19:20 59.17358 18.11488 3626 ft 183 kts 93°
2026-05-04 19:20 59.17301 18.13959 3498 ft 182 kts 85°
2026-05-04 19:21 59.17600 18.16313 3371 ft 178 kts 59°
2026-05-04 19:21 59.18331 18.18172 3248 ft 169 kts 31°
2026-05-04 19:21 59.19304 18.19377 3126 ft 166 kts 24°
2026-05-04 19:21 59.20257 18.20682 3003 ft 168 kts 28°
2026-05-04 19:22 59.21200 18.22047 2876 ft 169 kts 28°
2026-05-04 19:22 59.22171 18.23285 2746 ft 164 kts 16°
2026-05-04 19:22 59.23238 18.23774 2621 ft 153 kts 352°
2026-05-04 19:22 59.24243 18.23473 2528 ft 141 kts 332°
2026-05-04 19:23 59.25066 18.22576 2504 ft 133 kts 314°
2026-05-04 19:23 59.25684 18.21270 2496 ft 130 kts 300°
2026-05-04 19:23 59.26194 18.19803 2490 ft 130 kts 300°
2026-05-04 19:23 59.26725 18.18360 2494 ft 131 kts 301°
2026-05-04 19:24 59.27263 18.16921 2497 ft 131 kts 301°
2026-05-04 19:24 59.27792 18.15470 2495 ft 127 kts 300°
2026-05-04 19:24 59.28264 18.14163 2491 ft 113 kts 299°
2026-05-04 19:24 59.28708 18.12918 2493 ft 111 kts 298°
2026-05-04 19:25 59.29152 18.11660 2419 ft 116 kts 298°
2026-05-04 19:25 59.29591 18.10418 2187 ft 106 kts 298°
2026-05-04 19:25 59.30000 18.09274 1944 ft 100 kts 298°
2026-05-04 19:25 59.30400 18.08193 1721 ft 97 kts 299°
2026-05-04 19:26 59.30799 18.07145 1526 ft 93 kts 300°
2026-05-04 19:26 59.31190 18.06150 1531 ft 92 kts 300°
2026-05-04 19:26 59.31575 18.05118 1391 ft 99 kts 295°
2026-05-04 19:26 59.31956 18.03909 1283 ft 106 kts 296°
2026-05-04 19:27 59.32337 18.02831 1184 ft 87 kts 298°
2026-05-04 19:27 59.32685 18.01907 1025 ft 82 kts 298°
2026-05-04 19:27 59.32997 18.00969 893 ft 83 kts 297°
2026-05-04 19:27 59.33332 18.00028 780 ft 85 kts 300°
2026-05-04 19:28 59.33675 17.99094 653 ft 84 kts 299°
2026-05-04 19:28 59.34007 17.98184 529 ft 77 kts 298°
2026-05-04 19:28 59.34308 17.97309 390 ft 79 kts 297°
2026-05-04 19:28 59.34638 17.96403 237 ft 80 kts 299°
2026-05-04 19:29 59.34946 17.95537 70 ft 76 kts 299°
2026-05-04 19:29 59.35209 17.94808 31 ft 49 kts 304°
2026-05-04 19:29 59.35359 17.94388 25 ft 34 kts 303°
2026-05-04 19:29 59.35479 17.94048 28 ft 30 kts 304°
2026-05-04 19:30 59.35586 17.93749 29 ft 22 kts 304°
2026-05-04 19:30 59.35682 17.93534 27 ft 19 kts 353°
2026-05-04 19:30 59.35753 17.93610 28 ft 0 kts 36°
2026-05-04 19:31 59.35789 17.93668 31 ft 15 kts 60°
2026-05-04 19:31 59.35728 17.93893 33 ft 22 kts 125°
2026-05-04 19:31 59.35649 17.94109 32 ft 16 kts 144°
2026-05-04 19:31 59.35537 17.94239 31 ft 23 kts 122°
2026-05-04 19:32 59.35510 17.94449 29 ft 0 kts 52°